| time (UTC) | temp F | wind direction | speed MPH | gust MPH | rain 1hr in | rain 24hr in | rain mn in | humidity % | barometer mb |
| 20260904201010 | 95 | 210 | 2.0 | 6.0 | 0.00 | 0.00 | 0.00 | 37 | 1014.6 |
| 20260904200520 | 95 | 243 | 1.0 | 6.0 | 0.00 | 0.00 | 0.00 | 36 | 1014.6 |
| 20260904200033 | 96 | 177 | 1.0 | 4.0 | 0.00 | 0.00 | 0.00 | 36 | 1014.7 |
| 20260904195515 | 96 | 338 | 0.0 | 6.0 | 0.00 | 0.00 | 0.00 | 37 | 1014.7 |
| 20260904195017 | 95 | 307 | 2.0 | 6.0 | 0.00 | 0.00 | 0.00 | 36 | 1014.8 |
| 20260904194536 | 94 | 339 | 0.0 | 6.0 | 0.00 | 0.00 | 0.00 | 38 | 1014.9 |
| 20260904194009 | 95 | 240 | 0.0 | 6.0 | 0.00 | 0.00 | 0.00 | 39 | 1015.0 |
| 20260904193519 | 95 | 240 | 1.0 | 7.0 | 0.00 | 0.00 | 0.00 | 38 | 1015.1 |
| 20260904193030 | 95 | 250 | 0.0 | 7.0 | 0.00 | 0.00 | 0.00 | 38 | 1015.1 |
| 20260904192523 | 94 | 293 | 0.0 | 5.0 | 0.00 | 0.00 | 0.00 | 37 | 1015.2 |
| 20260904192018 | 94 | 208 | 1.0 | 6.0 | 0.00 | 0.00 | 0.00 | 37 | 1015.3 |
| 20260904191532 | 94 | 242 | 2.0 | 6.0 | 0.00 | 0.00 | 0.00 | 38 | 1015.4 |
| 20260904191010 | 94 | 196 | 2.0 | 6.0 | 0.00 | 0.00 | 0.00 | 37 | 1015.5 |
| 20260904190516 | 94 | 213 | 3.0 | 6.0 | 0.00 | 0.00 | 0.00 | 38 | 1015.5 |
| 20260904190031 | 93 | 167 | 2.0 | 4.0 | 0.00 | 0.00 | 0.00 | 39 | 1015.6 |
| 20260904185509 | 94 | 166 | 0.0 | 3.0 | 0.00 | 0.00 | 0.00 | 40 | 1015.6 |
| 20260904185004 | 93 | 153 | 0.0 | 3.0 | 0.00 | 0.00 | 0.00 | 41 | 1015.8 |
| 20260904184507 | 92 | 151 | 0.0 | 4.0 | 0.00 | 0.00 | 0.00 | 41 | 1015.8 |
| 20260904184010 | 92 | 141 | 0.0 | 6.0 | 0.00 | 0.00 | 0.00 | 42 | 1015.9 |
| 20260904183505 | 93 | 210 | 1.0 | 6.0 | 0.00 | 0.00 | 0.00 | 42 | 1015.9 |
| 20260904183004 | 92 | 199 | 2.0 | 7.0 | 0.00 | 0.00 | 0.00 | 42 | 1016.0 |
| 20260904182510 | 91 | 192 | 2.0 | 7.0 | 0.00 | 0.00 | 0.00 | 44 | 1016.1 |
| 20260904182012 | 92 | 200 | 2.0 | 6.0 | 0.00 | 0.00 | 0.00 | 45 | 1016.1 |
| 20260904181504 | 91 | 210 | 2.0 | 6.0 | 0.00 | 0.00 | 0.00 | 46 | 1016.1 |
| 20260904181018 | 90 | 188 | 1.0 | 5.0 | 0.00 | 0.00 | 0.00 | 46 | 1016.2 |
| 20260904180516 | 90 | 160 | 1.0 | 4.0 | 0.00 | 0.00 | 0.00 | 47 | 1016.2 |
| 20260904180035 | 90 | 162 | 0.0 | 6.0 | 0.00 | 0.00 | 0.00 | 48 | 1016.4 |
| 20260904175508 | 90 | 142 | 2.0 | 6.0 | 0.00 | 0.00 | 0.00 | 47 | 1016.4 |
| 20260904175004 | 90 | 129 | 2.0 | 6.0 | 0.00 | 0.00 | 0.00 | 48 | 1016.4 |
| 20260904174506 | 90 | 149 | 0.0 | 5.0 | 0.00 | 0.00 | 0.00 | 49 | 1016.5 |
| 20260904174010 | 89 | 167 | 1.0 | 5.0 | 0.00 | 0.00 | 0.00 | 51 | 1016.5 |
| 20260904173516 | 89 | 157 | 1.0 | 7.0 | 0.00 | 0.00 | 0.00 | 52 | 1016.5 |
| 20260904173028 | 89 | 91 | 1.0 | 7.0 | 0.00 | 0.00 | 0.00 | 52 | 1016.6 |
| 20260904172514 | 89 | 204 | 3.0 | 7.0 | 0.00 | 0.00 | 0.00 | 54 | 1016.5 |
| 20260904172007 | 88 | 60 | 0.0 | 7.0 | 0.00 | 0.00 | 0.00 | 55 | 1016.7 |
| 20260904171504 | 88 | 46 | 0.0 | 7.0 | 0.00 | 0.00 | 0.00 | 55 | 1016.8 |
| 20260904171019 | 88 | 51 | 3.0 | 7.0 | 0.00 | 0.00 | 0.00 | 56 | 1016.8 |
| 20260904170518 | 87 | 71 | 1.0 | 7.0 | 0.00 | 0.00 | 0.00 | 56 | 1016.9 |
| 20260904170029 | 87 | 68 | 3.0 | 8.0 | 0.00 | 0.00 | 0.00 | 57 | 1016.9 |
| 20260904165513 | 87 | 74 | 2.0 | 8.0 | 0.00 | 0.00 | 0.00 | 57 | 1016.9 |
| 20260904165007 | 87 | 31 | 3.0 | 8.0 | 0.00 | 0.00 | 0.00 | 57 | 1016.8 |
| 20260904164506 | 87 | 59 | 2.0 | 8.0 | 0.00 | 0.00 | 0.00 | 58 | 1016.8 |
| 20260904164017 | 86 | 70 | 2.0 | 7.0 | 0.00 | 0.00 | 0.00 | 58 | 1016.8 |
| 20260904163516 | 86 | 128 | 1.0 | 10.0 | 0.00 | 0.00 | 0.00 | 59 | 1016.7 |
| 20260904163033 | 86 | 86 | 2.0 | 10.0 | 0.00 | 0.00 | 0.00 | 59 | 1016.7 |
| 20260904162510 | 85 | 147 | 2.0 | 7.0 | 0.00 | 0.00 | 0.00 | 59 | 1016.6 |
| 20260904162006 | 86 | 108 | 2.0 | 9.0 | 0.00 | 0.00 | 0.00 | 59 | 1016.7 |
| 20260904161504 | 85 | 112 | 4.0 | 9.0 | 0.00 | 0.00 | 0.00 | 60 | 1016.7 |
| 20260904161019 | 85 | 45 | 3.0 | 7.0 | 0.00 | 0.00 | 0.00 | 60 | 1016.6 |
| 20260904160504 | 85 | 118 | 1.0 | 8.0 | 0.00 | 0.00 | 0.00 | 61 | 1016.6 |
| 20260904160009 | 85 | 94 | 3.0 | 8.0 | 0.00 | 0.00 | 0.00 | 60 | 1016.6 |
| 20260904155519 | 84 | 83 | 2.0 | 6.0 | 0.00 | 0.00 | 0.00 | 62 | 1016.6 |
| 20260904155019 | 84 | 94 | 2.0 | 6.0 | 0.00 | 0.00 | 0.00 | 62 | 1016.6 |
| 20260904154534 | 83 | 360 | 0.0 | 7.0 | 0.00 | 0.00 | 0.00 | 63 | 1016.6 |
| 20260904154018 | 83 | 143 | 1.0 | 9.0 | 0.00 | 0.00 | 0.00 | 62 | 1016.5 |
| 20260904153517 | 84 | 67 | 4.0 | 9.0 | 0.00 | 0.00 | 0.00 | 61 | 1016.6 |
| 20260904153028 | 83 | 91 | 1.0 | 7.0 | 0.00 | 0.00 | 0.00 | 62 | 1016.5 |
| 20260904152510 | 83 | 101 | 2.0 | 7.0 | 0.00 | 0.00 | 0.00 | 62 | 1016.5 |
| 20260904152008 | 83 | 65 | 2.0 | 8.0 | 0.00 | 0.00 | 0.00 | 62 | 1016.6 |
| 20260904151534 | 83 | 88 | 4.0 | 7.0 | 0.00 | 0.00 | 0.00 | 63 | 1016.6 |
| 20260904151019 | 83 | 108 | 2.0 | 12.0 | 0.00 | 0.00 | 0.00 | 63 | 1016.5 |
| 20260904150504 | 83 | 42 | 2.0 | 12.0 | 0.00 | 0.00 | 0.00 | 63 | 1016.5 |
| 20260904150036 | 83 | 69 | 4.0 | 10.0 | 0.00 | 0.00 | 0.00 | 64 | 1016.4 |
| 20260904145517 | 82 | 12 | 2.0 | 10.0 | 0.00 | 0.00 | 0.00 | 64 | 1016.5 |
| 20260904145006 | 82 | 6 | 2.0 | 8.0 | 0.00 | 0.00 | 0.00 | 65 | 1016.4 |
| 20260904144537 | 82 | 6 | 2.0 | 8.0 | 0.00 | 0.00 | 0.00 | 65 | 1016.4 |
| 20260904144017 | 82 | 8 | 2.0 | 5.0 | 0.00 | 0.00 | 0.00 | 65 | 1016.3 |
| 20260904143515 | 82 | 6 | 3.0 | 5.0 | 0.00 | 0.00 | 0.00 | 66 | 1016.4 |
| 20260904143032 | 81 | 5 | 1.0 | 6.0 | 0.00 | 0.00 | 0.00 | 67 | 1016.4 |
| 20260904142513 | 81 | 6 | 2.0 | 8.0 | 0.00 | 0.00 | 0.00 | 67 | 1016.3 |
| 20260904142005 | 80 | 4 | 3.0 | 8.0 | 0.00 | 0.00 | 0.00 | 67 | 1016.3 |
| 20260904141538 | 80 | 5 | 2.0 | 6.0 | 0.00 | 0.00 | 0.00 | 68 | 1016.3 |
| 20260904141007 | 80 | 4 | 3.0 | 5.0 | 0.00 | 0.00 | 0.00 | 69 | 1016.2 |
| 20260904140518 | 79 | 5 | 2.0 | 5.0 | 0.00 | 0.00 | 0.00 | 70 | 1016.2 |
| 20260904140033 | 78 | 4 | 2.0 | 5.0 | 0.00 | 0.00 | 0.00 | 71 | 1016.2 |
| 20260904135511 | 78 | 55 | 2.0 | 5.0 | 0.00 | 0.00 | 0.00 | 71 | 1016.1 |
| 20260904135005 | 78 | 60 | 2.0 | 5.0 | 0.00 | 0.00 | 0.00 | 72 | 1016.1 |
| 20260904134536 | 77 | 4 | 1.0 | 4.0 | 0.00 | 0.00 | 0.00 | 73 | 1016.0 |
| 20260904134015 | 77 | 4 | 0.0 | 4.0 | 0.00 | 0.00 | 0.00 | 73 | 1015.9 |
| 20260904133504 | 77 | 4 | 1.0 | 3.0 | 0.00 | 0.00 | 0.00 | 73 | 1015.8 |
| 20260904133027 | 77 | 7 | 0.0 | 3.0 | 0.00 | 0.00 | 0.00 | 73 | 1015.7 |
| 20260904132510 | 77 | 9 | 0.0 | 4.0 | 0.00 | 0.00 | 0.00 | 72 | 1015.7 |
| 20260904132005 | 77 | 360 | 1.0 | 4.0 | 0.00 | 0.00 | 0.00 | 72 | 1015.6 |
| 20260904131532 | 77 | 360 | 1.0 | 3.0 | 0.00 | 0.00 | 0.00 | 72 | 1015.5 |
| 20260904131019 | 78 | 360 | 0.0 | 3.0 | 0.00 | 0.00 | 0.00 | 71 | 1015.4 |
| 20260904130509 | 78 | 360 | 0.0 | 3.0 | 0.00 | 0.00 | 0.00 | 71 | 1015.3 |
| 20260904130037 | 78 | 360 | 1.0 | 3.0 | 0.00 | 0.00 | 0.00 | 71 | 1015.2 |
| 20260904125512 | 78 | 360 | 1.0 | 3.0 | 0.00 | 0.00 | 0.00 | 71 | 1015.2 |
| 20260904125006 | 78 | 360 | 0.0 | 3.0 | 0.00 | 0.00 | 0.00 | 70 | 1015.1 |
| 20260904124528 | 78 | 360 | 0.0 | 2.0 | 0.00 | 0.00 | 0.00 | 70 | 1015.1 |
| 20260904124012 | 78 | 360 | 0.0 | 3.0 | 0.00 | 0.00 | 0.00 | 70 | 1015.0 |
| 20260904123508 | 78 | 11 | 0.0 | 3.0 | 0.00 | 0.00 | 0.00 | 69 | 1014.9 |
| 20260904123030 | 78 | 360 | 0.0 | 3.0 | 0.00 | 0.00 | 0.00 | 69 | 1014.8 |
| 20260904122508 | 78 | 360 | 0.0 | 2.0 | 0.00 | 0.00 | 0.00 | 69 | 1014.8 |
| 20260904122006 | 79 | 360 | 0.0 | 2.0 | 0.00 | 0.00 | 0.00 | 69 | 1014.6 |
| 20260904121532 | 79 | 360 | 0.0 | 1.0 | 0.00 | 0.00 | 0.00 | 69 | 1014.6 |
| 20260904121012 | 79 | 360 | 0.0 | 5.0 | 0.00 | 0.00 | 0.00 | 69 | 1014.7 |
| 20260904120506 | 79 | 11 | 1.0 | 5.0 | 0.00 | 0.00 | 0.00 | 69 | 1014.7 |
| 20260904120037 | 79 | 360 | 0.0 | 2.0 | 0.00 | 0.00 | 0.00 | 69 | 1014.7 |
| 20260904115509 | 79 | 360 | 0.0 | 4.0 | 0.00 | 0.00 | 0.00 | 68 | 1014.7 |
| 20260904115004 | 79 | 360 | 0.0 | 4.0 | 0.00 | 0.00 | 0.00 | 68 | 1014.6 |
| 20260904114531 | 79 | 11 | 2.0 | 7.0 | 0.00 | 0.00 | 0.00 | 68 | 1014.7 |
| 20260904114012 | 80 | 360 | 0.0 | 7.0 | 0.00 | 0.00 | 0.00 | 67 | 1014.7 |
| 20260904113506 | 80 | 360 | 2.0 | 5.0 | 0.00 | 0.00 | 0.00 | 67 | 1014.6 |
| 20260904113033 | 80 | 360 | 1.0 | 5.0 | 0.00 | 0.00 | 0.00 | 66 | 1014.6 |
| 20260904112507 | 80 | 360 | 1.0 | 6.0 | 0.00 | 0.00 | 0.00 | 66 | 1014.5 |
| 20260904112005 | 80 | 9 | 1.0 | 6.0 | 0.00 | 0.00 | 0.00 | 66 | 1014.4 |
| 20260904111540 | 80 | 360 | 1.0 | 5.0 | 0.00 | 0.00 | 0.00 | 66 | 1014.5 |
| 20260904111012 | 80 | 360 | 1.0 | 5.0 | 0.00 | 0.00 | 0.00 | 66 | 1014.5 |
| 20260904110504 | 80 | 11 | 1.0 | 6.0 | 0.00 | 0.00 | 0.00 | 65 | 1014.5 |
| 20260904110031 | 80 | 8 | 2.0 | 6.0 | 0.00 | 0.00 | 0.00 | 65 | 1014.5 |
| 20260904105510 | 80 | 8 | 2.0 | 6.0 | 0.00 | 0.00 | 0.00 | 66 | 1014.5 |
| 20260904105005 | 80 | 8 | 1.0 | 6.0 | 0.00 | 0.00 | 0.00 | 66 | 1014.5 |
| 20260904104530 | 80 | 6 | 1.0 | 5.0 | 0.00 | 0.00 | 0.00 | 66 | 1014.4 |
| 20260904104008 | 80 | 6 | 2.0 | 5.0 | 0.00 | 0.00 | 0.00 | 66 | 1014.5 |
| 20260904103504 | 80 | 9 | 0.0 | 4.0 | 0.00 | 0.00 | 0.00 | 66 | 1014.5 |
| 20260904103041 | 80 | 8 | 1.0 | 4.0 | 0.00 | 0.00 | 0.00 | 66 | 1014.5 |
| 20260904102510 | 80 | 8 | 1.0 | 5.0 | 0.00 | 0.00 | 0.00 | 66 | 1014.5 |
| 20260904102019 | 80 | 11 | 1.0 | 6.0 | 0.00 | 0.00 | 0.00 | 66 | 1014.5 |
| 20260904101529 | 80 | 6 | 2.0 | 6.0 | 0.00 | 0.00 | 0.00 | 66 | 1014.5 |
| 20260904101009 | 80 | 10 | 1.0 | 6.0 | 0.00 | 0.00 | 0.00 | 66 | 1014.4 |
| 20260904100518 | 80 | 8 | 2.0 | 6.0 | 0.00 | 0.00 | 0.00 | 66 | 1014.5 |
| 20260904100031 | 80 | 6 | 1.0 | 6.0 | 0.00 | 0.00 | 0.00 | 66 | 1014.4 |
| 20260904095513 | 80 | 6 | 1.0 | 9.0 | 0.00 | 0.00 | 0.00 | 66 | 1014.4 |
| 20260904095006 | 80 | 6 | 4.0 | 9.0 | 0.00 | 0.00 | 0.00 | 66 | 1014.3 |
| 20260904094530 | 80 | 9 | 1.0 | 6.0 | 0.00 | 0.00 | 0.00 | 66 | 1014.2 |
| 20260904094007 | 81 | 9 | 0.0 | 7.0 | 0.00 | 0.00 | 0.00 | 66 | 1014.2 |
| 20260904093504 | 81 | 8 | 1.0 | 8.0 | 0.00 | 0.00 | 0.00 | 66 | 1014.2 |
| 20260904093028 | 81 | 8 | 2.0 | 8.0 | 0.00 | 0.00 | 0.00 | 65 | 1014.2 |
| 20260904092508 | 80 | 7 | 2.0 | 8.0 | 0.00 | 0.00 | 0.00 | 66 | 1014.2 |
| 20260904092004 | 80 | 8 | 1.0 | 8.0 | 0.00 | 0.00 | 0.00 | 66 | 1014.2 |
| 20260904091530 | 80 | 8 | 2.0 | 7.0 | 0.00 | 0.00 | 0.00 | 66 | 1014.1 |
| 20260904091015 | 80 | 8 | 2.0 | 7.0 | 0.00 | 0.00 | 0.00 | 66 | 1014.2 |
| 20260904090503 | 80 | 8 | 0.0 | 4.0 | 0.00 | 0.00 | 0.00 | 66 | 1014.3 |
| 20260904090030 | 80 | 8 | 0.0 | 5.0 | 0.00 | 0.00 | 0.00 | 66 | 1014.3 |
| 20260904085511 | 80 | 360 | 2.0 | 5.0 | 0.00 | 0.00 | 0.00 | 66 | 1014.2 |
| 20260904085006 | 80 | 11 | 1.0 | 6.0 | 0.00 | 0.00 | 0.00 | 66 | 1014.2 |
| 20260904084530 | 80 | 10 | 0.0 | 6.0 | 0.00 | 0.00 | 0.00 | 66 | 1014.2 |
| 20260904084012 | 80 | 11 | 1.0 | 5.0 | 0.00 | 0.00 | 0.00 | 66 | 1014.2 |
| 20260904083504 | 80 | 360 | 0.0 | 5.0 | 0.00 | 0.00 | 0.00 | 66 | 1014.2 |
| 20260904083047 | 80 | 360 | 0.0 | 5.0 | 0.00 | 0.00 | 0.00 | 66 | 1014.3 |
| 20260904082512 | 80 | 360 | 2.0 | 4.0 | 0.00 | 0.00 | 0.00 | 66 | 1014.3 |
| 20260904082005 | 80 | 360 | 0.0 | 4.0 | 0.00 | 0.00 | 0.00 | 66 | 1014.4 |
| 20260904081531 | 81 | 360 | 1.0 | 4.0 | 0.00 | 0.00 | 0.00 | 66 | 1014.4 |
| 20260904081010 | 81 | 360 | 0.0 | 4.0 | 0.00 | 0.00 | 0.00 | 66 | 1014.4 |
| 20260904080505 | 81 | 360 | 0.0 | 5.0 | 0.00 | 0.00 | 0.00 | 65 | 1014.4 |
| 20260904080029 | 81 | 360 | 0.0 | 5.0 | 0.00 | 0.00 | 0.00 | 65 | 1014.4 |
| 20260904075508 | 81 | 13 | 1.0 | 5.0 | 0.00 | 0.00 | 0.00 | 65 | 1014.4 |
| 20260904075005 | 81 | 11 | 1.0 | 5.0 | 0.00 | 0.00 | 0.00 | 65 | 1014.4 |
| 20260904074545 | 81 | 7 | 0.0 | 5.0 | 0.00 | 0.00 | 0.00 | 65 | 1014.4 |
| 20260904074011 | 81 | 360 | 2.0 | 6.0 | 0.00 | 0.00 | 0.00 | 65 | 1014.4 |
| 20260904073506 | 81 | 8 | 2.0 | 6.0 | 0.00 | 0.00 | 0.00 | 65 | 1014.4 |
| 20260904073035 | 81 | 360 | 2.0 | 5.0 | 0.00 | 0.00 | 0.00 | 65 | 1014.4 |
| 20260904072510 | 81 | 360 | 1.0 | 5.0 | 0.00 | 0.00 | 0.00 | 64 | 1014.5 |
| 20260904072006 | 81 | 11 | 0.0 | 8.0 | 0.00 | 0.00 | 0.00 | 64 | 1014.6 |
| 20260904071531 | 81 | 360 | 2.0 | 8.0 | 0.00 | 0.00 | 0.00 | 64 | 1014.6 |
| 20260904071018 | 81 | 9 | 1.0 | 5.0 | 0.00 | 0.00 | 0.00 | 64 | 1014.6 |
| 20260904070506 | 81 | 360 | 0.0 | 5.0 | 0.00 | 0.00 | 0.00 | 63 | 1014.6 |
| 20260904070029 | 81 | 8 | 1.0 | 6.0 | 0.00 | 0.00 | 0.00 | 63 | 1014.6 |
| 20260904065508 | 82 | 11 | 1.0 | 6.0 | 0.00 | 0.00 | 0.00 | 63 | 1014.5 |
| 20260904065004 | 82 | 8 | 1.0 | 5.0 | 0.00 | 0.00 | 0.00 | 63 | 1014.5 |
| 20260904064535 | 82 | 10 | 2.0 | 5.0 | 0.00 | 0.00 | 0.00 | 62 | 1014.6 |
| 20260904064008 | 82 | 360 | 1.0 | 5.0 | 0.00 | 0.00 | 0.00 | 62 | 1014.6 |
| 20260904063504 | 82 | 10 | 1.0 | 5.0 | 0.00 | 0.00 | 0.00 | 62 | 1014.6 |
| 20260904063028 | 82 | 360 | 1.0 | 5.0 | 0.00 | 0.00 | 0.00 | 62 | 1014.6 |
| 20260904062511 | 82 | 10 | 1.0 | 5.0 | 0.00 | 0.00 | 0.00 | 62 | 1014.5 |
| 20260904062006 | 82 | 360 | 1.0 | 5.0 | 0.00 | 0.00 | 0.00 | 62 | 1014.5 |
| 20260904061539 | 82 | 11 | 1.0 | 5.0 | 0.00 | 0.00 | 0.00 | 62 | 1014.5 |
| 20260904061010 | 82 | 360 | 1.0 | 5.0 | 0.00 | 0.00 | 0.00 | 61 | 1014.5 |
| 20260904060506 | 82 | 360 | 0.0 | 5.0 | 0.00 | 0.00 | 0.00 | 61 | 1014.5 |
| 20260904060030 | 82 | 360 | 0.0 | 6.0 | 0.00 | 0.00 | 0.00 | 60 | 1014.4 |
| 20260904055508 | 82 | 11 | 1.0 | 7.0 | 0.00 | 0.00 | 0.00 | 60 | 1014.4 |
| 20260904055004 | 82 | 360 | 2.0 | 7.0 | 0.00 | 0.00 | 0.00 | 60 | 1014.4 |
| 20260904054535 | 83 | 360 | 1.0 | 9.0 | 0.00 | 0.00 | 0.00 | 60 | 1014.3 |
| 20260904054010 | 83 | 8 | 1.0 | 9.0 | 0.00 | 0.00 | 0.00 | 60 | 1014.3 |
| 20260904053507 | 82 | 360 | 2.0 | 6.0 | 0.00 | 0.00 | 0.00 | 61 | 1014.3 |
| 20260904053033 | 83 | 8 | 1.0 | 5.0 | 0.00 | 0.00 | 0.00 | 61 | 1014.2 |
| 20260904052513 | 83 | 9 | 1.0 | 8.0 | 0.00 | 0.00 | 0.00 | 60 | 1014.3 |
| 20260904052010 | 83 | 8 | 3.0 | 8.0 | 0.00 | 0.00 | 0.00 | 60 | 1014.3 |
| 20260904051530 | 83 | 10 | 3.0 | 8.0 | 0.00 | 0.00 | 0.00 | 60 | 1014.3 |
| 20260904051009 | 83 | 360 | 0.0 | 7.0 | 0.00 | 0.00 | 0.00 | 61 | 1014.3 |
| 20260904050517 | 83 | 360 | 1.0 | 7.0 | 0.00 | 0.00 | 0.00 | 60 | 1014.3 |
| 20260904050028 | 83 | 360 | 2.0 | 7.0 | 0.00 | 0.00 | 0.00 | 60 | 1014.4 |
| 20260904045510 | 83 | 360 | 1.0 | 5.0 | 0.00 | 0.00 | 0.00 | 58 | 1014.4 |
| 20260904045021 | 84 | 360 | 1.0 | 8.0 | 0.00 | 0.00 | 0.00 | 58 | 1014.4 |
| 20260904044529 | 84 | 360 | 1.0 | 8.0 | 0.00 | 0.00 | 0.00 | 58 | 1014.4 |
| 20260904044009 | 84 | 360 | 0.0 | 5.0 | 0.00 | 0.00 | 0.00 | 58 | 1014.4 |
| 20260904043520 | 84 | 10 | 1.0 | 5.0 | 0.00 | 0.00 | 0.00 | 58 | 1014.5 |
| 20260904043029 | 84 | 11 | 0.0 | 6.0 | 0.00 | 0.00 | 0.00 | 58 | 1014.6 |
| 20260904042510 | 84 | 13 | 0.0 | 6.0 | 0.00 | 0.00 | 0.00 | 58 | 1014.6 |
| 20260904042016 | 84 | 9 | 3.0 | 7.0 | 0.00 | 0.00 | 0.00 | 58 | 1014.4 |
| 20260904041535 | 84 | 10 | 3.0 | 7.0 | 0.00 | 0.00 | 0.00 | 58 | 1014.5 |
| 20260904041013 | 84 | 11 | 2.0 | 8.0 | 0.00 | 0.00 | 0.00 | 58 | 1014.5 |
| 20260904040514 | 84 | 9 | 3.0 | 8.0 | 0.00 | 0.00 | 0.00 | 59 | 1014.5 |
| 20260904040028 | 84 | 360 | 1.0 | 6.0 | 0.00 | 0.00 | 0.00 | 59 | 1014.5 |
| 20260904035512 | 84 | 360 | 2.0 | 8.0 | 0.00 | 0.00 | 0.00 | 58 | 1014.4 |
| 20260904035018 | 84 | 8 | 2.0 | 8.0 | 0.00 | 0.00 | 0.00 | 59 | 1014.2 |
| 20260904034531 | 84 | 360 | 3.0 | 9.0 | 0.00 | 0.00 | 0.00 | 58 | 1014.1 |
| 20260904034010 | 84 | 360 | 4.0 | 9.0 | 0.00 | 0.00 | 0.00 | 58 | 1014.0 |
| 20260904033519 | 84 | 360 | 3.0 | 8.0 | 0.00 | 0.00 | 0.00 | 59 | 1014.1 |
| 20260904033027 | 84 | 360 | 1.0 | 8.0 | 0.00 | 0.00 | 0.00 | 58 | 1014.0 |
| 20260904032509 | 84 | 360 | 3.0 | 10.0 | 0.00 | 0.00 | 0.00 | 58 | 1014.0 |
| 20260904032017 | 84 | 10 | 2.0 | 10.0 | 0.00 | 0.00 | 0.00 | 59 | 1013.9 |
| 20260904031528 | 84 | 10 | 1.0 | 9.0 | 0.00 | 0.00 | 0.00 | 59 | 1013.8 |
| 20260904031020 | 84 | 11 | 2.0 | 9.0 | 0.00 | 0.00 | 0.00 | 58 | 1013.8 |
| 20260904030514 | 84 | 360 | 3.0 | 9.0 | 0.00 | 0.00 | 0.00 | 59 | 1013.6 |
| 20260904030028 | 84 | 11 | 3.0 | 9.0 | 0.00 | 0.00 | 0.00 | 59 | 1013.5 |
| 20260904025519 | 84 | 11 | 3.0 | 8.0 | 0.00 | 0.00 | 0.00 | 59 | 1013.5 |
| 20260904025016 | 84 | 6 | 2.0 | 8.0 | 0.00 | 0.00 | 0.00 | 59 | 1013.4 |
| 20260904024530 | 84 | 360 | 3.0 | 7.0 | 0.00 | 0.00 | 0.00 | 59 | 1013.3 |
| 20260904024012 | 84 | 360 | 2.0 | 7.0 | 0.00 | 0.00 | 0.00 | 59 | 1013.2 |
| 20260904023516 | 84 | 11 | 2.0 | 8.0 | 0.00 | 0.00 | 0.00 | 59 | 1013.2 |
| 20260904023030 | 84 | 360 | 3.0 | 8.0 | 0.00 | 0.00 | 0.00 | 58 | 1013.1 |
| 20260904022508 | 85 | 360 | 3.0 | 7.0 | 0.00 | 0.00 | 0.00 | 58 | 1013.2 |
| 20260904022016 | 85 | 360 | 0.0 | 4.0 | 0.00 | 0.00 | 0.00 | 58 | 1013.2 |
| 20260904021536 | 85 | 360 | 0.0 | 4.0 | 0.00 | 0.00 | 0.00 | 57 | 1013.1 |
| 20260904021010 | 85 | 360 | 0.0 | 3.0 | 0.00 | 0.00 | 0.00 | 57 | 1013.0 |
| 20260904020520 | 85 | 360 | 0.0 | 4.0 | 0.00 | 0.00 | 0.00 | 56 | 1013.0 |
| 20260904020027 | 85 | 12 | 0.0 | 5.0 | 0.00 | 0.00 | 0.00 | 56 | 1012.9 |
| 20260904015508 | 85 | 11 | 0.0 | 5.0 | 0.00 | 0.00 | 0.00 | 56 | 1012.8 |
| 20260904015020 | 85 | 360 | 0.0 | 6.0 | 0.00 | 0.00 | 0.00 | 56 | 1012.7 |
| 20260904014533 | 86 | 4 | 2.0 | 6.0 | 0.00 | 0.00 | 0.00 | 55 | 1012.5 |
| 20260904014008 | 86 | 6 | 2.0 | 8.0 | 0.00 | 0.00 | 0.00 | 54 | 1012.5 |
| 20260904013515 | 87 | 4 | 2.0 | 8.0 | 0.00 | 0.00 | 0.00 | 52 | 1012.5 |
| 20260904013032 | 88 | 4 | 1.0 | 8.0 | 0.00 | 0.00 | 0.00 | 51 | 1012.4 |
| 20260904012508 | 88 | 6 | 1.0 | 7.0 | 0.00 | 0.00 | 0.00 | 50 | 1012.5 |
| 20260904012021 | 88 | 6 | 1.0 | 8.0 | 0.00 | 0.00 | 0.00 | 49 | 1012.3 |
| 20260904011534 | 88 | 143 | 2.0 | 8.0 | 0.00 | 0.00 | 0.00 | 49 | 1012.2 |
| 20260904011018 | 89 | 143 | 2.0 | 7.0 | 0.00 | 0.00 | 0.00 | 49 | 1012.2 |
| 20260904010516 | 89 | 118 | 2.0 | 6.0 | 0.00 | 0.00 | 0.00 | 49 | 1012.2 |
| 20260904010034 | 89 | 136 | 1.0 | 6.0 | 0.00 | 0.00 | 0.00 | 51 | 1012.1 |
| 20260904005515 | 89 | 143 | 0.0 | 5.0 | 0.00 | 0.00 | 0.00 | 52 | 1012.2 |
| 20260904005003 | 88 | 124 | 0.0 | 5.0 | 0.00 | 0.00 | 0.00 | 56 | 1012.2 |
| 20260904004504 | 87 | 105 | 0.0 | 6.0 | 0.00 | 0.00 | 0.00 | 58 | 1012.3 |
| 20260904004008 | 87 | 70 | 0.0 | 6.0 | 0.00 | 0.00 | 0.00 | 59 | 1012.4 |
| 20260904003507 | 86 | 106 | 1.0 | 5.0 | 0.00 | 0.00 | 0.00 | 61 | 1012.4 |
| 20260904003004 | 86 | 40 | 0.0 | 3.0 | 0.00 | 0.00 | 0.00 | 69 | 1012.4 |
| 20260904002518 | 85 | 37 | 0.0 | 3.0 | 0.00 | 0.00 | 0.00 | 70 | 1012.3 |
| 20260904002019 | 85 | 37 | 0.0 | 3.0 | 0.00 | 0.00 | 0.00 | 67 | 1012.2 |
| 20260904001536 | 85 | 37 | 0.0 | 3.0 | 0.00 | 0.00 | 0.00 | 67 | 1012.2 |
| 20260904001007 | 85 | 38 | 0.0 | 3.0 | 0.00 | 0.00 | 0.00 | 66 | 1012.2 |
| 20260904000503 | 85 | 40 | 0.0 | 2.0 | 0.00 | 0.00 | 0.00 | 65 | 1012.3 |
| 20260904000010 | 84 | 41 | 0.0 | 5.0 | 0.00 | 0.00 | 0.00 | 67 | 1012.3 |
| 20260903235518 | 83 | 41 | 0.0 | 5.0 | 0.00 | 0.00 | 0.00 | 69 | 1012.2 |
| 20260903235003 | 83 | 51 | 2.0 | 5.0 | 0.00 | 0.00 | 0.00 | 69 | 1012.3 |
| 20260903234505 | 84 | 71 | 2.0 | 6.0 | 0.00 | 0.00 | 0.00 | 67 | 1012.4 |
| 20260903234010 | 85 | 85 | 0.0 | 7.0 | 0.00 | 0.00 | 0.00 | 64 | 1012.4 |
| 20260903233506 | 86 | 76 | 3.0 | 7.0 | 0.00 | 0.00 | 0.00 | 59 | 1012.4 |
| 20260903233004 | 87 | 115 | 3.0 | 7.0 | 0.00 | 0.00 | 0.00 | 56 | 1012.4 |
| 20260903232510 | 88 | 4 | 2.0 | 7.0 | 0.00 | 0.00 | 0.00 | 54 | 1012.5 |
| 20260903232005 | 90 | 113 | 2.0 | 6.0 | 0.00 | 0.00 | 0.00 | 49 | 1012.5 |
| 20260903231504 | 90 | 117 | 2.0 | 6.0 | 0.00 | 0.00 | 0.00 | 48 | 1012.4 |
| 20260903231010 | 92 | 223 | 0.0 | 6.0 | 0.00 | 0.00 | 0.00 | 45 | 1012.4 |
| 20260903230504 | 92 | 223 | 1.0 | 6.0 | 0.00 | 0.00 | 0.00 | 44 | 1012.2 |
| 20260903230031 | 92 | 322 | 0.0 | 6.0 | 0.00 | 0.00 | 0.00 | 45 | 1012.3 |
| 20260903225510 | 92 | 323 | 1.0 | 7.0 | 0.00 | 0.00 | 0.00 | 44 | 1012.3 |
| 20260903225005 | 93 | 303 | 2.0 | 7.0 | 0.00 | 0.00 | 0.00 | 43 | 1012.4 |
| 20260903224528 | 93 | 281 | 0.0 | 4.0 | 0.00 | 0.00 | 0.00 | 43 | 1012.3 |
| 20260903224011 | 92 | 283 | 0.0 | 5.0 | 0.00 | 0.00 | 0.00 | 45 | 1012.3 |
| 20260903223505 | 92 | 281 | 2.0 | 5.0 | 0.00 | 0.00 | 0.00 | 43 | 1012.3 |
| 20260903223030 | 92 | 270 | 3.0 | 5.0 | 0.00 | 0.00 | 0.00 | 43 | 1012.3 |
| 20260903222513 | 93 | 214 | 0.0 | 5.0 | 0.00 | 0.00 | 0.00 | 41 | 1012.3 |
| 20260903222011 | 94 | 216 | 2.0 | 5.0 | 0.00 | 0.00 | 0.00 | 41 | 1012.4 |
| 20260903221528 | 95 | 240 | 1.0 | 8.0 | 0.00 | 0.00 | 0.00 | 40 | 1012.4 |
| 20260903221010 | 95 | 213 | 3.0 | 8.0 | 0.00 | 0.00 | 0.00 | 39 | 1012.4 |
| 20260903220504 | 95 | 232 | 1.0 | 4.0 | 0.00 | 0.00 | 0.00 | 40 | 1012.6 |
| 20260903220030 | 93 | 292 | 0.0 | 7.0 | 0.00 | 0.00 | 0.00 | 42 | 1012.8 |
| 20260903215508 | 93 | 291 | 1.0 | 10.0 | 0.00 | 0.00 | 0.00 | 42 | 1012.8 |
| 20260903215015 | 94 | 305 | 2.0 | 10.0 | 0.00 | 0.00 | 0.00 | 41 | 1012.9 |
| 20260903214528 | 93 | 274 | 3.0 | 10.0 | 0.00 | 0.00 | 0.00 | 43 | 1013.0 |
| 20260903214016 | 94 | 236 | 5.0 | 10.0 | 0.00 | 0.00 | 0.00 | 41 | 1013.0 |
| 20260903213504 | 95 | 268 | 3.0 | 8.0 | 0.00 | 0.00 | 0.00 | 42 | 1013.0 |
| 20260903213029 | 94 | 200 | 2.0 | 7.0 | 0.00 | 0.00 | 0.00 | 42 | 1013.1 |
| 20260903212511 | 93 | 281 | 2.0 | 7.0 | 0.00 | 0.00 | 0.00 | 42 | 1013.1 |
| 20260903212004 | 94 | 239 | 2.0 | 5.0 | 0.00 | 0.00 | 0.00 | 41 | 1013.2 |
| 20260903211528 | 94 | 310 | 1.0 | 7.0 | 0.00 | 0.00 | 0.00 | 40 | 1013.2 |
| 20260903211007 | 95 | 246 | 4.0 | 7.0 | 0.00 | 0.00 | 0.00 | 40 | 1013.2 |
| 20260903210506 | 96 | 212 | 1.0 | 5.0 | 0.00 | 0.00 | 0.00 | 40 | 1013.3 |
| 20260903210030 | 95 | 257 | 0.0 | 3.0 | 0.00 | 0.00 | 0.00 | 40 | 1013.4 |
| 20260903205508 | 93 | 257 | 2.0 | 5.0 | 0.00 | 0.00 | 0.00 | 42 | 1013.4 |
| 20260903205004 | 93 | 259 | 2.0 | 5.0 | 0.00 | 0.00 | 0.00 | 43 | 1013.5 |
| 20260903204532 | 93 | 185 | 0.0 | 5.0 | 0.00 | 0.00 | 0.00 | 43 | 1013.6 |
| 20260903204011 | 93 | 193 | 1.0 | 5.0 | 0.00 | 0.00 | 0.00 | 41 | 1013.7 |
| 20260903203517 | 94 | 212 | 1.0 | 4.0 | 0.00 | 0.00 | 0.00 | 41 | 1013.8 |
| 20260903203027 | 93 | 207 | 0.0 | 5.0 | 0.00 | 0.00 | 0.00 | 42 | 1013.8 |
| 20260903202507 | 93 | 199 | 2.0 | 5.0 | 0.00 | 0.00 | 0.00 | 42 | 1013.9 |
| 20260903202003 | 94 | 252 | 2.0 | 5.0 | 0.00 | 0.00 | 0.00 | 42 | 1013.9 |
| 20260903201530 | 93 | 276 | 0.0 | 4.0 | 0.00 | 0.00 | 0.00 | 44 | 1014.2 |